Location: ?
(35.3544°N, 139.4507°E)
Time: 05:39:30
(UTC+00:00)

Cosmos 1378 Rocket - Pass Details

Date: 03 August 2024
Orbit: 597 x 623 km, 82.5° (Epoch: 10 September)

Event Time Altitude Azimuth Distance (km) Brightness Sun altitude
Rises 19:22:06 0° 354° (N) 2,852 7.3 -6.6°
Reaches altitude 10° 19:24:19 10° 355° (N) 1,943 6.4 -6.2°
Maximum altitude 19:28:36 82° 82° (E) 607 3.6 -5.4°
Drops below altitude 10° 19:32:52 10° 172° (S) 1,925 5.9 -4.6°
Sets 19:35:03 0° 173° (S) 2,823 6.8 -4.2°
